Regional Weather Roundup
Issued by NWS Jackson, KY

Home | Current Version | Previous Version | Text Only | Print | Product List | Glossary Off
Versions: 1 2 3 4 5 6 7 8 9 10 11 12 13 14 15 16 17 18 19 20 21 22 23 24 25 26 27 28 29 30 31 32 33 34 35 36 37 38 39 40 41 42 43 44 45 46 47 48 49 50

000
ASUS43 KJKL 030110
RWRJKL

EAST KENTUCKY HOURLY WEATHER ROUNDUP
NATIONAL WEATHER SERVICE JACKSON KY
900 PM EDT SAT MAY 02 2015

NOTE: "FAIR" INDICATES FEW OR NO CLOUDS BELOW 12,000 FEET WITH
NO SIGNIFICANT WEATHER AND/OR OBSTRUCTIONS TO VISIBILITY.

* THESE REPORTS ARE NOT UNDER NWS QUALITY CONTROL AND MAY NOT
  REPORT WEATHER SUCH AS PRECIPITATION AND FOG.

KYZ079-080-083-085-087-088-110-112-115-119-120-030200
...EASTERN KENTUCKY...

CITY           SKY/WX    TMP DP  RH WIND       PRES   REMARKS
JACKSON        PTCLDY    68  33  27 CALM      30.09R
LONDON         CLEAR     64  41  42 CALM      30.08R
SOMERSET*      CLEAR     63  41  45 CALM      30.09R
MONTICELLO*    CLEAR     58  47  66 CALM      30.11R
MIDDLESBORO*   CLEAR     60  44  54 CALM      30.09R
HARLAN APT*    CLEAR     61  36  39 CALM      30.09R
HAZARD APT*    CLEAR     63  41  45 CALM      30.09R
PIKEVILLE APT* CLEAR     66  32  28 CALM      30.10R
BIG SANDY*     CLEAR     64  38  39 CALM      30.09R
MOREHEAD APT*  CLEAR     66  41  39 W3        30.09S
$$

KYZ035-036-041-042-044-050-067-078-099-030200
...CENTRAL KENTUCKY...

CITY           SKY/WX    TMP DP  RH WIND       PRES   REMARKS
MT STERLING*   CLEAR     61  45  55 CALM      30.09R
FLEMING/MASON* CLEAR     66  43  42 S5        30.08R
DANVILLE*      CLEAR     61  45  55 CALM      30.09R
RICHMOND*      CLEAR     68  37  32 CALM      30.08R
LEXINGTON      MOCLDY    67  43  41 S6        30.07S
FRANKFORT      CLEAR     63  45  51 SW3       30.06R
$$

KYZ091>093-OHZ055-061-077-WVZ005-015-034-035-042-030200
...SOUTHERN OHIO/WEST VIRGINIA...

CITY           SKY/WX    TMP DP  RH WIND       PRES   REMARKS
COVINGTON      PTCLDY    64  43  46 CALM      30.05R
COLUMBUS       PTCLDY    69  39  33 SW5       30.03R
DAYTON         PTCLDY    64  43  46 W5        30.05R
WILMINGTON     CLEAR     63  42  46 SW5       30.05R
HUNTINGTON     CLEAR     63  41  44 SE3       30.06R
CHARLESTON     PTCLDY    64  38  38 CALM      30.07R
PINEVILLE*     CLEAR     54  46  74 MISG      30.15R
BECKLEY        CLEAR     56  35  45 CALM      30.12R
BLUEFIELD      CLEAR     61  31  32 CALM      30.13R
$$

VAZ002-007-008-TNZ017-027-036-066-071-030200
...SOUTHWEST VIRGINIA/EAST TENNESSEE...

CITY           SKY/WX    TMP DP  RH WIND       PRES   REMARKS
WISE*          CLEAR     59  30  33 N3        30.14R
JONESVILLE*    CLEAR     59  45  58 CALM      30.11R
ABINGDON*      CLEAR     58  41  54 CALM      30.11R
BRISTOL        PTCLDY    59  40  49 CALM      30.09R
KNOXVILLE      CLEAR     68  42  38 CALM      30.06R
OAK RIDGE      CLEAR     63  46  54 CALM      30.08R
CROSSVILLE     CLEAR     65  39  38 NW5       30.11R
NASHVILLE      PTCLDY    69  46  43 E3        30.06R
$$

...KEY TO REMARKS...
VSB - VISIBILITY IN MILES
WCI - WIND CHILL INDEX
HX  - HEAT INDEX

$$



USA.gov is the U.S. government's official web portal to all federal, state and local government web resources and services.